• In Uzbekistan
  • List of Countries
  • For 7 days
  • Water Temperature
  • Satellite Maps
  • Weather Map
  • Weather Widgets
  • user-avatar
    Login

    Hourly Weather Tirana

    Today, 23 September, Sunday

    Time Temperature Precipitation Wind Pressure Humidity
    00:00 +22°C° 0 mm 1 mps 756 mmHg 72%
    01:00 +20°C° 0 mm 0 mps 756 mmHg 70%
    02:00 +20°C° 0 mm 0 mps 756 mmHg 69%
    03:00 +22°C° 0 mm 1 mps 756 mmHg 69%
    04:00 +22°C° 0 mm 1 mps 756 mmHg 68%
    05:00 +23°C° 0 mm 1 mps 756 mmHg 64%
    06:00 +24°C° 0 mm 1 mps 756 mmHg 60%
    07:00 +25°C° 0 mm 1 mps 756 mmHg 54%
    08:00 +27°C° 0 mm 1 mps 756 mmHg 48%
    09:00 +29°C° 0 mm 1 mps 757 mmHg 43%
    10:00 +31°C° 0 mm 1 mps 757 mmHg 37%
    11:00 +32°C° 0 mm 2 mps 757 mmHg 35%
    12:00 +34°C° 0 mm 2 mps 756 mmHg 33%
    13:00 +34°C° 0 mm 3 mps 756 mmHg 31%
    14:00 +34°C° 0 mm 3 mps 756 mmHg 33%
    15:00 +32°C° 0 mm 2 mps 756 mmHg 36%
    16:00 +31°C° 0 mm 2 mps 755 mmHg 38%
    17:00 +29°C° 0 mm 2 mps 755 mmHg 46%
    18:00 +26°C° 0 mm 1 mps 755 mmHg 54%
    19:00 +24°C° 0 mm 1 mps 755 mmHg 62%
    20:00 +24°C° 0 mm 1 mps 755 mmHg 62%
    21:00 +24°C° 0 mm 2 mps 756 mmHg 62%
    22:00 +23°C° 0 mm 2 mps 756 mmHg 61%
    23:00 +23°C° 0 mm 2 mps 755 mmHg 61%

    Tomorrow, 24 September, Monday

    Time Temperature Precipitation Wind Pressure Humidity
    00:00 +23°C° 0 mm 2 mps 755 mmHg 61%
    01:00 +21°C° 0 mm 3 mps 755 mmHg 61%
    02:00 +21°C° 0 mm 3 mps 754 mmHg 59%
    03:00 +21°C° 0 mm 3 mps 754 mmHg 58%
    04:00 +21°C° 0 mm 3 mps 754 mmHg 56%
    05:00 +22°C° 0 mm 3 mps 754 mmHg 53%
    06:00 +24°C° 0 mm 3 mps 754 mmHg 50%
    07:00 +25°C° 0 mm 4 mps 754 mmHg 47%
    08:00 +27°C° 0 mm 3 mps 753 mmHg 43%
    09:00 +28°C° 0 mm 3 mps 753 mmHg 39%
    10:00 +30°C° 0 mm 3 mps 753 mmHg 35%
    11:00 +32°C° 0 mm 4 mps 753 mmHg 34%
    12:00 +32°C° 0 mm 4 mps 753 mmHg 34%
    13:00 +33°C° 0 mm 4 mps 753 mmHg 34%
    14:00 +32°C° 0.2 mm 4 mps 753 mmHg 38%
    15:00 +32°C° 0.2 mm 4 mps 753 mmHg 43%
    16:00 +30°C° 0.2 mm 4 mps 753 mmHg 48%
    17:00 +28°C° 0.4 mm 4 mps 753 mmHg 54%
    18:00 +25°C° 0.4 mm 4 mps 754 mmHg 61%
    19:00 +22°C° 0.4 mm 4 mps 755 mmHg 68%
    20:00 +22°C° 0 mm 4 mps 755 mmHg 66%
    21:00 +21°C° 0 mm 5 mps 756 mmHg 64%
    22:00 +20°C° 0 mm 5 mps 757 mmHg 62%
    23:00 +20°C° 0 mm 6 mps 757 mmHg 60%

    Day after tomorrow, 25 September, Tuesday

    Time Temperature Precipitation Wind Pressure Humidity
    00:00 +19°C° 0 mm 6 mps 757 mmHg 58%
    01:00 +17°C° 0 mm 7 mps 757 mmHg 56%
    02:00 +17°C° 0 mm 7 mps 757 mmHg 55%
    03:00 +16°C° 0 mm 7 mps 758 mmHg 55%
    04:00 +16°C° 0 mm 7 mps 758 mmHg 55%
    05:00 +16°C° 0 mm 7 mps 758 mmHg 52%
    06:00 +16°C° 0 mm 7 mps 758 mmHg 49%
    07:00 +16°C° 0 mm 8 mps 759 mmHg 47%
    08:00 +18°C° 0 mm 7 mps 759 mmHg 42%
    09:00 +21°C° 0 mm 7 mps 759 mmHg 37%
    10:00 +23°C° 0 mm 7 mps 759 mmHg 32%
    11:00 +24°C° 0 mm 7 mps 759 mmHg 30%
    12:00 +26°C° 0 mm 7 mps 759 mmHg 28%
    13:00 +27°C° 0 mm 7 mps 759 mmHg 26%
    14:00 +27°C° 0 mm 7 mps 758 mmHg 26%
    15:00 +26°C° 0 mm 7 mps 758 mmHg 26%
    16:00 +26°C° 0 mm 7 mps 758 mmHg 26%
    17:00 +22°C° 0 mm 7 mps 759 mmHg 28%
    18:00 +20°C° 0 mm 8 mps 760 mmHg 31%
    19:00 +17°C° 0 mm 8 mps 760 mmHg 33%
    20:00 +16°C° 0 mm 8 mps 761 mmHg 34%
    21:00 +15°C° 0 mm 8 mps 761 mmHg 35%
    22:00 +13°C° 0 mm 8 mps 762 mmHg 36%
    23:00 +12°C° 0 mm 8 mps 762 mmHg 37%

    26 September, Wednesday

    Time Temperature Precipitation Wind Pressure Humidity
    00:00 +12°C° 0 mm 8 mps 762 mmHg 38%
    01:00 +11°C° 0 mm 7 mps 762 mmHg 40%
    02:00 +10°C° 0 mm 7 mps 763 mmHg 41%
    03:00 +10°C° 0 mm 7 mps 763 mmHg 43%
    04:00 +10°C° 0 mm 7 mps 763 mmHg 44%
    05:00 +10°C° 0 mm 7 mps 763 mmHg 43%
    06:00 +11°C° 0 mm 7 mps 763 mmHg 42%
    07:00 +12°C° 0 mm 7 mps 764 mmHg 40%
    08:00 +15°C° 0 mm 7 mps 764 mmHg 35%
    09:00 +18°C° 0 mm 7 mps 764 mmHg 29%
    10:00 +21°C° 0 mm 6 mps 764 mmHg 23%
    11:00 +22°C° 0 mm 6 mps 763 mmHg 21%
    12:00 +23°C° 0 mm 6 mps 763 mmHg 19%
    13:00 +25°C° 0 mm 5 mps 763 mmHg 17%
    14:00 +23°C° 0 mm 5 mps 763 mmHg 18%
    15:00 +23°C° 0 mm 5 mps 763 mmHg 18%
    16:00 +23°C° 0 mm 5 mps 762 mmHg 18%
    17:00 +21°C° 0 mm 5 mps 763 mmHg 21%
    18:00 +17°C° 0 mm 5 mps 763 mmHg 25%
    19:00 +15°C° 0 mm 5 mps 764 mmHg 28%
    20:00 +14°C° 0 mm 5 mps 764 mmHg 29%
    21:00 +13°C° 0 mm 5 mps 764 mmHg 31%
    22:00 +13°C° 0 mm 5 mps 764 mmHg 33%
    23:00 +12°C° 0 mm 4 mps 764 mmHg 34%

    27 September, Thursday

    Time Temperature Precipitation Wind Pressure Humidity
    00:00 +12°C° 0 mm 4 mps 764 mmHg 35%
    01:00 +11°C° 0 mm 4 mps 764 mmHg 36%
    02:00 +11°C° 0 mm 4 mps 764 mmHg 37%
    03:00 +11°C° 0 mm 4 mps 764 mmHg 38%
    04:00 +10°C° 0 mm 4 mps 763 mmHg 38%
    05:00 +12°C° 0 mm 4 mps 763 mmHg 37%
    06:00 +13°C° 0 mm 3 mps 763 mmHg 35%
    07:00 +14°C° 0 mm 3 mps 763 mmHg 34%
    08:00 +18°C° 0 mm 3 mps 762 mmHg 28%
    09:00 +21°C° 0 mm 3 mps 762 mmHg 22%
    10:00 +25°C° 0 mm 3 mps 762 mmHg 17%
    11:00 +26°C° 0 mm 4 mps 761 mmHg 16%
    12:00 +27°C° 0 mm 5 mps 761 mmHg 15%
    13:00 +28°C° 0 mm 6 mps 760 mmHg 14%
    14:00 +27°C° 0 mm 6 mps 759 mmHg 16%
    15:00 +27°C° 0 mm 6 mps 759 mmHg 19%
    16:00 +26°C° 0 mm 6 mps 759 mmHg 22%
    17:00 +23°C° 0 mm 6 mps 759 mmHg 28%
    18:00 +20°C° 0 mm 6 mps 759 mmHg 34%
    19:00 +17°C° 0 mm 5 mps 759 mmHg 40%
    20:00 +16°C° 0 mm 5 mps 759 mmHg 37%
    21:00 +16°C° 0 mm 5 mps 758 mmHg 33%
    22:00 +17°C° 0 mm 4 mps 758 mmHg 30%
    23:00 +15°C° 0 mm 4 mps 758 mmHg 29%

    28 September, Friday

    Time Temperature Precipitation Wind Pressure Humidity
    00:00 +15°C° 0 mm 4 mps 758 mmHg 28%
    01:00 +15°C° 0 mm 4 mps 757 mmHg 27%
    02:00 +15°C° 0 mm 4 mps 757 mmHg 27%
    03:00 +14°C° 0 mm 4 mps 757 mmHg 27%
    04:00 +14°C° 0 mm 4 mps 756 mmHg 26%
    05:00 +15°C° 0 mm 4 mps 756 mmHg 27%
    06:00 +17°C° 0 mm 4 mps 756 mmHg 27%
    07:00 +18°C° 0 mm 4 mps 756 mmHg 28%
    08:00 +21°C° 0 mm 3 mps 756 mmHg 25%
    09:00 +25°C° 0 mm 3 mps 756 mmHg 23%
    10:00 +27°C° 0 mm 2 mps 755 mmHg 21%
    11:00 +28°C° 0 mm 3 mps 755 mmHg 21%
    12:00 +29°C° 0 mm 3 mps 755 mmHg 22%
    13:00 +30°C° 0 mm 3 mps 754 mmHg 22%
    14:00 +29°C° 0 mm 3 mps 754 mmHg 24%
    15:00 +29°C° 0 mm 4 mps 754 mmHg 26%
    16:00 +28°C° 0 mm 4 mps 753 mmHg 28%
    17:00 +25°C° 0 mm 4 mps 754 mmHg 35%
    18:00 +22°C° 0 mm 3 mps 754 mmHg 42%
    19:00 +19°C° 0 mm 2 mps 754 mmHg 50%
    20:00 +19°C° 0 mm 2 mps 754 mmHg 49%
    21:00 +19°C° 0 mm 2 mps 754 mmHg 49%
    22:00 +20°C° 0 mm 1 mps 755 mmHg 48%
    23:00 +19°C° 0 mm 1 mps 755 mmHg 48%
    Show more